Regional Weather Roundup
Issued by NWS Upton, NY

Current Version | Previous Version | Text Only | Print | Product List | Glossary On
Versions: 1 2 3 4 5 6 7 8 9 10 11 12 13 14 15 16 17 18 19 20 21 22 23 24 25 26 27 28 29 30 31 32 33 34 35 36 37 38 39 40 41 42 43 44 45 46 47 48 49 50
000
ASUS41 KOKX 200005
RWROKX

REGIONAL WEATHER ROUNDUP
NATIONAL WEATHER SERVICE NEW YORK NY
800 PM EDT TUE AUG 19 2014

NOTE: "FAIR" INDICATES FEW OR NO CLOUDS BELOW 12,000 FEET WITH NO
SIGNIFICANT WEATHER AND/OR OBSTRUCTIONS TO VISIBILITY.

NYZ071-072-176-178-NJZ106-104-200100-
NEW YORK CITY METRO AREA


CITY           SKY/WX    TMP DP  RH WIND       PRES   REMARKS
CENTRAL PARK   CLEAR     74  62  66 VRB7      29.93R
LAGUARDIA APRT PTCLDY    74  62  66 S10       29.90R
KENNEDY INTL   MOCLDY    73  65  75 SE9       29.92R
NEWARK/LIBERTY MOCLDY    75  65  70 SE8       29.90R
BRNX BOT. GARD   N/A     72  63  73 S1        29.91S
TETERBORO      CLEAR     76  62  62 SE7       29.89R
$$

NYZ177-179-078>081-200100-
LONG ISLAND NEW YORK

CITY           SKY/WX    TMP DP  RH WIND       PRES   REMARKS
FARMINGDALE    CLEAR     70  64  81 SE7       29.92R
ISLIP          PTCLDY    71  64  78 SE6       29.90R
SHIRLEY        CLEAR     68  63  84 SE3       29.92S
WESTHAMPTON    CLEAR     66  61  84 CALM      29.94R
MONTAUK POINT    N/A     69  63  81 VRB3      29.94R
$$

NYZ052-065-067-200100-
HUDSON VALLEY

CITY           SKY/WX    TMP DP  RH WIND       PRES   REMARKS
WHITE PLAINS   CLEAR     69  60  73 SE3       29.91R
NEWBURGH       PTCLDY    77  57  50 VRB6      29.90S
MONTGOMERY     CLEAR     71  59  65 CALM      29.89R
POUGHKEEPSIE   CLEAR     71  60  68 E3        29.88R
ALBANY         PTCLDY    72  51  47 CALM      29.91R
$$

NJZ001-105-106-008-010-013-015-019>022-104-200100-
NEW JERSEY

CITY           SKY/WX    TMP DP  RH WIND       PRES   REMARKS
NEWARK/LIBERTY MOCLDY    75  65  70 SE8       29.90R
TETERBORO      CLEAR     76  62  62 SE7       29.89R
CALDWELL       CLEAR     75  60  59 SE5       29.90R
MORRISTOWN     PTCLDY    75  63  64 S6        29.90R
SOMERVILLE     CLEAR     76  64  66 S5        29.87R
LINDEN         FAIR      79  68  68 SE5       29.91S
SUSSEX         CLEAR     74  59  59 CALM      29.89R
ANDOVER          N/A     71  61  70 CALM      29.89S
TRENTON        CLEAR     76  62  62 SE8       29.88R
MILLVILLE      CLEAR     73  64  73 SE5       29.89R
ATLANTIC CITY  CLEAR     70  63  78 E5        29.90R
WRIGHTSTOWN    CLEAR     72  63  74 SE3       29.88R
TOMS RIVER     CLEAR     72  63  73 CALM      29.91R
BELMAR         CLEAR     72  59  64 SE5       29.91R
$$

PAZ047>061-062-071-200100-
EASTERN PENNSYLVANIA

CITY           SKY/WX    TMP DP  RH WIND       PRES   REMARKS
PHILADELPHIA   MOCLDY    79  65  62 S7        29.88R
ALLENTOWN      CLEAR     75  60  59 CALM      29.88S
SCRANTON       CLOUDY    76  60  57 S3        29.90R
$$

CTZ002-004>006-009-010-012-RIZ004-006-007-MAZ004-011-015-200100-
SOUTHERN NEW ENGLAND
 IN CT

CITY           SKY/WX    TMP DP  RH WIND       PRES   REMARKS
BRADLEY INTL   PTCLDY    74  54  49 SE5       29.90R
HARTFORD       CLEAR     72  56  57 SE5       29.91R
DANBURY        CLEAR     71  56  58 SE8       29.92R
WTRBRY/OXFORD  PTCLDY    66  54  63 S6        29.95R
BRIDGEPORT     CLEAR     73  63  70 SE7       29.91R
MERIDEN        CLEAR     69  56  62 S3        29.91R
NEW HAVEN      PTCLDY    72  62  71 S6        29.92R
CHESTER        FAIR      66  61  82 CALM      29.94R
GROTON         CLEAR     67  63  87 S5        29.92R
WILLIMANTIC    CLEAR     69  56  62 CALM      29.93R

 IN RI

CITY           SKY/WX    TMP DP  RH WIND       PRES   REMARKS
PROVIDENCE     PTCLDY    68  54  60 S7        29.92R
BLOCK ISLAND   CLEAR     66  61  82 S5        29.94R
WESTERLY       CLEAR     68  62  81 S3        29.93S

 IN MA

CITY           SKY/WX    TMP DP  RH WIND       PRES   REMARKS
BOSTON         PTCLDY    66  55  67 SE7       29.93R
WORCESTER      CLEAR     65  55  70 NW5       29.95R
WESTFIELD      CLEAR     68  61  78 CALM      29.91R
PROVINCETOWN   CLEAR     63  55  77 MISG      29.94S
NANTUCKET      CLEAR     60  56  86 MISG      29.94S
$$

ANZ330-335-338-340-345-350-353-355-200100-
COASTAL MARINE OBSERVATIONS


STATION/POSITION TIME  SKY/WX   TEMP    WIND        PRES    VSBY  WAVE
                                AIR SEA DIR/SP/G                  HT/PER
                 (UTC)          (F)     (DEG/KT/KT) (MB)    (MI)  (FT/S)
NY HARB ENTRANCE NOT AVBL
4S FIRE IS       NOT AVBL
23SW MTP         0000            68 70              1012.7          1/ 9
HUDSON CANYON    0000            73 75   80/ 10/ 12 1012.6          2/10
EXECUTION ROCKS  0000            75 74  170/  8/ 10   N/A
WESTERN LI SOUND 0000            74     170/  8/ 10   N/A           1
CENTRAL LI SOUND 2300            72 73  170/ 10/ 12   N/A           1
EASTERN LI SOUND 2300            69 69  180/  8/ 12   N/A
ROBBINS REEF     0000            73     150/ 13/ 14   N/A
$$


>>>>>>>>>>>>>>>>>>>>>>>>>>>> KEY <<<<<<<<<<<<<<<<<<<<<<<<<<<
>                                                          <
>     SKY/WX - SKY CONDITION/PRESENT WEATHER               <
>     TMP    - TEMPERATURE IN FAHRENHEIT                   <
>     DP     - DEWPOINT IN FAHRENHEIT                      <
>     RH     - RELATIVE HUMIDITY IN PERCENT                <
>     WIND   - DIRECTION AND SPEED IN MPH                  <
>     PRES   - MEAN SEA LEVEL PRESSURE IN INCHES OF HG     <
>     WCI    - WIND CHILL INDEX                            <
>     VSB    - VISIBILITY IN MILES                         <
>     HX     - HEAT INDEX                                  <
>     TC     - TEMPERATURE IN CELSIUS                      <
>     VRB    - VARIABLE WIND DIRECTION                     <
>                                                          <
>>>>>>>>>>>>>>>>>>>>>>>>>>>> KEY <<<<<<<<<<<<<<<<<<<<<<<<<<<





USA.gov is the U.S. government's official web portal to all federal, state and local government web resources and services.